Tracking 30166 objects as of 22-Jan-2025
HD Live streaming from Space Station
objects crossing your sky now

OPS 8068

Track OPS 8068 now!
10-day predictions
OPS 8068 is classified as:


NORAD ID: 1580
Int'l Code: 1965-072A
Perigee: 635.9 km
Apogee: 968.0 km
Inclination: 98.4 °
Period: 100.8 minutes
Semi major axis: 7172 km
RCS: 0.631 m2 (medium)
Launch date: September 10, 1965
Source: United States (US)
Launch site: AIR FORCE WESTERN TEST RANGE (AFWTR)
Your satellite tracking list
Your tracking list is empty




NASA's NSSDC Master Catalog

Two Line Element Set (TLE):
1 01580U 65072A   25021.89828144  .00001030  00000-0  31789-3 0  9993
2 01580  98.3570 191.8203 0231484 116.7712 245.7356 14.29089519 59979
Source of the keplerian elements: AFSPC